When you browse on this site, cookies collect data to enhance your experience and personalize the content and advertising you see.
Visit our Privacy Policy to learn more. By continuing to use the site, you agree to this use of cookies and data.
EN

Hourly Weather Qala i Naw

Today, 6 July, Monday

Time Temperature Precipitation Wind Pressure Humidity
00:00 +21°C° 0 mm 1 mps 676 mmHg 31%
01:00 +20°C° 0 mm 1 mps 675 mmHg 32%
02:00 +19°C° 0 mm 1 mps 675 mmHg 33%
03:00 +18°C° 0 mm 1 mps 674 mmHg 34%
04:00 +18°C° 0 mm 1 mps 674 mmHg 35%
05:00 +20°C° 0 mm 1 mps 675 mmHg 31%
06:00 +23°C° 0 mm 1 mps 676 mmHg 26%
07:00 +26°C° 0 mm 1 mps 677 mmHg 21%
08:00 +28°C° 0 mm 2 mps 677 mmHg 19%
09:00 +29°C° 0 mm 3 mps 676 mmHg 17%
10:00 +32°C° 0 mm 4 mps 676 mmHg 16%
11:00 +33°C° 0 mm 5 mps 676 mmHg 14%
12:00 +34°C° 0 mm 6 mps 676 mmHg 13%
13:00 +36°C° 0 mm 7 mps 676 mmHg 12%
14:00 +36°C° 0 mm 7 mps 676 mmHg 12%
15:00 +37°C° 0 mm 8 mps 676 mmHg 11%
16:00 +37°C° 0 mm 9 mps 675 mmHg 11%
17:00 +34°C° 0 mm 8 mps 675 mmHg 12%
18:00 +32°C° 0 mm 7 mps 675 mmHg 13%
19:00 +29°C° 0 mm 5 mps 675 mmHg 14%
20:00 +27°C° 0 mm 4 mps 675 mmHg 16%
21:00 +25°C° 0 mm 3 mps 675 mmHg 18%
22:00 +23°C° 0 mm 2 mps 675 mmHg 20%
23:00 +23°C° 0 mm 2 mps 675 mmHg 22%

Tomorrow, 7 July, Tuesday

Time Temperature Precipitation Wind Pressure Humidity
00:00 +21°C° 0 mm 2 mps 675 mmHg 23%
01:00 +20°C° 0 mm 2 mps 674 mmHg 25%
02:00 +19°C° 0 mm 2 mps 674 mmHg 26%
03:00 +20°C° 0 mm 1 mps 674 mmHg 28%
04:00 +19°C° 0 mm 1 mps 674 mmHg 29%
05:00 +21°C° 0 mm 1 mps 675 mmHg 26%
06:00 +23°C° 0 mm 1 mps 676 mmHg 23%
07:00 +26°C° 0 mm 1 mps 677 mmHg 20%
08:00 +27°C° 0 mm 2 mps 677 mmHg 19%
09:00 +29°C° 0 mm 3 mps 677 mmHg 18%
10:00 +30°C° 0 mm 4 mps 677 mmHg 17%
11:00 +32°C° 0 mm 4 mps 677 mmHg 16%
12:00 +34°C° 0 mm 5 mps 677 mmHg 15%
13:00 +35°C° 0 mm 5 mps 677 mmHg 14%
14:00 +35°C° 0 mm 6 mps 677 mmHg 13%
15:00 +36°C° 0 mm 6 mps 677 mmHg 13%
16:00 +36°C° 0 mm 7 mps 677 mmHg 12%
17:00 +34°C° 0 mm 6 mps 677 mmHg 14%
18:00 +32°C° 0 mm 5 mps 677 mmHg 15%
19:00 +29°C° 0 mm 4 mps 677 mmHg 17%
20:00 +27°C° 0 mm 3 mps 677 mmHg 19%
21:00 +25°C° 0 mm 2 mps 677 mmHg 22%
22:00 +23°C° 0 mm 2 mps 677 mmHg 24%
23:00 +23°C° 0 mm 2 mps 677 mmHg 25%

Day after tomorrow, 8 July, Wednesday

Time Temperature Precipitation Wind Pressure Humidity
00:00 +21°C° 0 mm 2 mps 677 mmHg 25%
01:00 +21°C° 0 mm 2 mps 676 mmHg 26%
02:00 +21°C° 0 mm 1 mps 676 mmHg 27%
03:00 +21°C° 0 mm 1 mps 676 mmHg 28%
04:00 +20°C° 0 mm 1 mps 676 mmHg 29%
05:00 +23°C° 0 mm 1 mps 677 mmHg 25%
06:00 +25°C° 0 mm 1 mps 678 mmHg 22%
07:00 +26°C° 0 mm 0 mps 679 mmHg 18%
08:00 +29°C° 0 mm 1 mps 679 mmHg 17%
09:00 +31°C° 0 mm 2 mps 679 mmHg 16%
10:00 +33°C° 0 mm 3 mps 679 mmHg 14%
11:00 +34°C° 0 mm 4 mps 679 mmHg 13%
12:00 +35°C° 0 mm 5 mps 679 mmHg 13%
13:00 +37°C° 0 mm 5 mps 678 mmHg 12%
14:00 +38°C° 0 mm 6 mps 678 mmHg 12%
15:00 +38°C° 0 mm 6 mps 678 mmHg 12%
16:00 +38°C° 0 mm 6 mps 678 mmHg 11%
17:00 +35°C° 0 mm 5 mps 678 mmHg 13%
18:00 +33°C° 0 mm 4 mps 678 mmHg 14%
19:00 +30°C° 0 mm 3 mps 678 mmHg 16%
20:00 +28°C° 0 mm 3 mps 678 mmHg 19%
21:00 +26°C° 0 mm 2 mps 677 mmHg 22%
22:00 +25°C° 0 mm 2 mps 677 mmHg 24%
23:00 +24°C° 0 mm 1 mps 677 mmHg 26%

9 July, Thursday

Time Temperature Precipitation Wind Pressure Humidity
00:00 +23°C° 0 mm 1 mps 677 mmHg 27%
01:00 +23°C° 0 mm 1 mps 677 mmHg 28%
02:00 +22°C° 0 mm 1 mps 676 mmHg 30%
03:00 +21°C° 0 mm 1 mps 676 mmHg 31%
04:00 +21°C° 0 mm 1 mps 676 mmHg 32%
05:00 +24°C° 0 mm 1 mps 677 mmHg 28%
06:00 +26°C° 0 mm 1 mps 678 mmHg 23%
07:00 +29°C° 0 mm 1 mps 678 mmHg 18%
08:00 +31°C° 0 mm 3 mps 678 mmHg 17%
09:00 +34°C° 0 mm 5 mps 679 mmHg 15%
10:00 +36°C° 0 mm 7 mps 679 mmHg 14%
11:00 +38°C° 0 mm 8 mps 679 mmHg 13%
12:00 +38°C° 0 mm 9 mps 679 mmHg 12%
13:00 +39°C° 0 mm 9 mps 678 mmHg 11%
14:00 +39°C° 0 mm 9 mps 678 mmHg 12%
15:00 +39°C° 0 mm 9 mps 678 mmHg 12%
16:00 +38°C° 0 mm 9 mps 678 mmHg 12%
17:00 +37°C° 0 mm 8 mps 678 mmHg 13%
18:00 +34°C° 0 mm 7 mps 677 mmHg 15%
19:00 +32°C° 0 mm 6 mps 677 mmHg 17%
20:00 +29°C° 0 mm 4 mps 677 mmHg 20%
21:00 +27°C° 0 mm 3 mps 677 mmHg 23%
22:00 +24°C° 0 mm 1 mps 677 mmHg 26%
23:00 +24°C° 0 mm 1 mps 676 mmHg 27%

10 July, Friday

Time Temperature Precipitation Wind Pressure Humidity
00:00 +23°C° 0 mm 1 mps 676 mmHg 28%
01:00 +23°C° 0 mm 1 mps 676 mmHg 29%
02:00 +22°C° 0 mm 1 mps 676 mmHg 30%
03:00 +22°C° 0 mm 1 mps 676 mmHg 32%
04:00 +21°C° 0 mm 1 mps 676 mmHg 33%
05:00 +24°C° 0 mm 1 mps 676 mmHg 29%
06:00 +26°C° 0 mm 1 mps 677 mmHg 25%
07:00 +29°C° 0 mm 1 mps 678 mmHg 21%
08:00 +30°C° 0 mm 3 mps 678 mmHg 19%
09:00 +33°C° 0 mm 4 mps 678 mmHg 18%
10:00 +34°C° 0 mm 6 mps 678 mmHg 16%
11:00 +37°C° 0 mm 8 mps 678 mmHg 15%
12:00 +38°C° 0 mm 9 mps 678 mmHg 14%
13:00 +39°C° 0 mm 11 mps 678 mmHg 13%
14:00 +39°C° 0 mm 11 mps 678 mmHg 13%
15:00 +38°C° 0 mm 12 mps 678 mmHg 13%
16:00 +37°C° 0 mm 12 mps 678 mmHg 14%
17:00 +36°C° 0 mm 10 mps 678 mmHg 15%
18:00 +33°C° 0 mm 8 mps 678 mmHg 16%
19:00 +30°C° 0 mm 6 mps 678 mmHg 17%
20:00 +28°C° 0 mm 5 mps 678 mmHg 20%
21:00 +27°C° 0 mm 5 mps 678 mmHg 22%
22:00 +26°C° 0 mm 4 mps 678 mmHg 24%
23:00 +23°C° 0 mm 4 mps 678 mmHg 26%

11 July, Saturday

Time Temperature Precipitation Wind Pressure Humidity
00:00 +22°C° 0 mm 3 mps 677 mmHg 28%
01:00 +21°C° 0 mm 2 mps 677 mmHg 30%
02:00 +20°C° 0 mm 2 mps 677 mmHg 32%
03:00 +20°C° 0 mm 2 mps 676 mmHg 34%
04:00 +20°C° 0 mm 1 mps 676 mmHg 36%
05:00 +21°C° 0 mm 2 mps 677 mmHg 32%
06:00 +24°C° 0 mm 2 mps 677 mmHg 29%
07:00 +26°C° 0 mm 3 mps 678 mmHg 26%
08:00 +28°C° 0 mm 5 mps 678 mmHg 23%
09:00 +30°C° 0 mm 7 mps 678 mmHg 20%
10:00 +33°C° 0 mm 9 mps 678 mmHg 18%
11:00 +33°C° 0 mm 9 mps 678 mmHg 16%
12:00 +34°C° 0 mm 10 mps 678 mmHg 15%
13:00 +36°C° 0 mm 11 mps 677 mmHg 14%
14:00 +36°C° 0 mm 11 mps 677 mmHg 14%
15:00 +36°C° 0 mm 11 mps 677 mmHg 14%
16:00 +36°C° 0 mm 10 mps 677 mmHg 13%
17:00 +33°C° 0 mm 9 mps 677 mmHg 15%
18:00 +32°C° 0 mm 8 mps 677 mmHg 17%
19:00 +29°C° 0 mm 6 mps 677 mmHg 18%
20:00 +27°C° 0 mm 5 mps 677 mmHg 21%
21:00 +26°C° 0 mm 4 mps 677 mmHg 23%
22:00 +24°C° 0 mm 3 mps 676 mmHg 25%
23:00 +23°C° 0 mm 2 mps 676 mmHg 27%
Show more